Torna al catalogo

CZ-6A DEB

AttivoPO
NORAD 60831·DEBRIS·🇨🇳 China

Lanciato Aug 6, 2024 da Taiyuan Satellite Launch Center

Loading…

Prossimi Passaggi (prossime 24 ore)

TLE

AggiornatoSource: Space-Track

Epoca: Sep 14, 2026, 11:08 UTC

1 60831U 24140HJ  26257.46407469  .00000465  00000-0  22038-3 0  9994
2 60831  88.9975 265.2211 0056975 257.6383 101.8425 14.17215466107928

Traccia CZ-6A DEB in tempo reale con AllMySat

Download on the App Store